GEFSMW_850_meantemp_168.txt.gz
Temperature
21 21 21 21 20 19 19 18 18 17 16 15 15 14 14 14 14 13 13 13 13 12 12 12 11 11 11 10 10 10 10 10 9 9 9 9 10 10 10 10 10 10 10
20 21 21 21 20 20 19 19 18 18 17 16 16 16 15 15 14 14 13 13 13 12 12 12 11 11 11 10 10 10 10 9 9 9 9 9 9 10 10 10 10 9 9
20 21 21 21 20 20 20 19 19 18 17 17 16 15 14 13 13 13 13 13 13 12 12 12 12 11 11 11 10 10 10 10 9 9 9 9 9 9 9 9 9 9 9
21 21 21 21 20 20 20 19 19 18 18 17 16 15 15 14 15 15 14 13 13 13 12 12 12 11 11 11 11 10 10 10 9 9 9 9 9 8 8 9 9 9 9
20 21 21 21 21 21 20 20 19 18 18 17 16 16 16 16 15 14 14 13 13 13 12 12 12 11 11 11 10 10 10 10 9 9 9 9 8 8 8 8 8 8 8
20 20 21 21 21 20 20 19 19 18 18 17 17 16 16 16 15 14 14 14 13 13 13 12 12 11 11 11 10 10 10 10 9 9 9 9 8 8 8 8 8 8 8
20 20 20 20 20 20 20 19 19 18 18 17 17 17 16 16 15 15 15 14 14 13 13 12 12 12 11 11 10 10 10 10 9 9 9 9 8 8 8 7 7 7 7
19 19 20 20 20 20 19 19 19 18 18 18 17 17 16 16 15 15 15 14 14 14 13 13 12 12 11 11 10 10 10 10 9 9 9 8 8 8 8 7 7 6 6
19 19 19 20 19 19 19 19 19 18 18 18 17 17 16 16 16 15 15 14 14 14 13 13 12 12 11 11 10 10 10 10 9 9 9 8 8 8 7 7 6 6 5
18 19 19 19 19 19 19 19 18 18 18 18 17 17 16 16 16 15 14 14 14 13 13 12 12 11 11 11 10 10 10 9 9 9 9 8 8 7 7 7 6 6 5
18 18 18 18 18 18 18 18 18 18 17 17 17 17 16 16 15 15 14 14 14 13 13 12 12 11 11 11 10 10 10 9 9 9 8 8 8 7 7 6 6 6 5
17 18 18 18 18 18 18 18 18 18 18 17 17 17 16 16 15 15 14 14 13 13 13 12 12 11 11 11 10 10 9 9 9 8 8 8 7 7 6 6 6 5 5
17 17 17 17 17 17 17 17 18 18 17 17 17 16 16 16 15 15 14 14 13 13 12 12 11 11 11 10 10 9 9 9 8 8 7 7 7 6 6 6 5 5 4
16 16 17 17 17 17 17 17 17 17 17 17 16 16 16 15 15 15 14 14 13 13 12 12 11 11 11 10 10 9 9 8 8 8 7 7 6 6 6 5 4 4 3
15 15 16 16 17 17 17 17 17 17 16 16 16 16 16 15 15 14 14 13 13 12 12 11 11 10 10 10 9 9 8 8 8 7 7 6 6 6 5 4 4 3 3
14 15 15 15 16 16 16 16 16 16 16 16 16 16 15 15 14 14 14 13 13 12 11 11 10 10 10 10 9 8 8 8 7 7 6 6 5 5 4 4 3 3 2
14 14 15 15 15 15 16 16 16 16 15 15 15 15 15 15 14 14 13 13 12 12 11 10 10 10 10 9 8 8 7 7 7 6 6 5 5 4 4 3 3 2 2
13 14 14 14 15 15 15 15 15 15 15 15 15 15 14 14 14 13 13 12 12 11 11 10 10 9 9 8 8 7 7 7 6 6 5 5 4 4 3 3 2 2 1
13 13 14 14 14 14 14 14 14 14 14 14 14 14 14 14 13 13 12 12 11 11 10 10 9 9 8 8 7 7 6 6 5 5 4 4 3 3 2 2 1 1 0
12 12 13 13 13 13 14 14 14 14 14 14 14 14 13 13 13 12 12 11 11 10 9 9 8 8 8 7 7 6 6 5 5 4 4 3 3 2 2 1 1 0 -0
11 12 12 12 12 13 13 13 13 13 13 13 13 13 13 12 12 11 11 10 10 9 8 8 8 7 7 7 6 6 5 5 4 4 3 3 2 1 1 0 -0 -1 -1
11 11 11 11 12 12 12 12 12 12 12 12 12 12 12 11 11 10 10 9 9 8 8 7 7 7 6 6 5 5 4 4 3 3 2 2 1 1 0 -0 -1 -1 -2
10 10 10 10 11 11 11 11 12 12 11 11 11 11 11 10 10 10 9 8 8 8 7 7 6 6 6 5 4 4 3 3 2 2 1 1 0 -0 -1 -1 -2 -2 -3
9 9 9 10 10 10 10 10 10 10 10 10 10 10 10 9 9 9 8 8 8 7 7 6 6 5 5 4 4 3 3 2 1 1 0 0 -0 -1 -1 -2 -3 -3 -4
8 8 8 9 9 9 9 9 9 9 9 9 9 9 9 8 8 8 7 7 7 7 6 6 5 5 5 4 3 3 2 2 1 0 -0 -1 -1 -2 -2 -3 -3 -4 -4
7 7 7 7 7 8 8 8 8 8 8 8 8 8 8 7 7 6 6 5 5 5 5 5 4 4 3 3 2 2 1 1 0 -0 -1 -1 -2 -2 -3 -3 -4 -4 -5

GEFSMW_850_meantemp_174.txt.gz
Temperature
20 20 19 19 19 19 18 18 18 17 17 16 15 15 15 15 14 14 14 13 13 12 12 12 11 11 11 10 10 10 10 10 9 9 9 9 9 10 10 10 10 10 10
19 19 19 19 19 19 19 19 18 18 17 17 17 16 16 15 15 14 14 13 13 13 12 12 12 11 11 10 10 10 10 10 9 9 9 9 9 10 10 10 10 10 10
19 19 19 20 20 19 19 19 19 18 18 18 17 16 15 14 14 14 14 14 13 13 13 12 12 11 11 11 10 10 10 10 9 9 9 9 9 9 10 10 10 10 10
19 19 19 20 20 20 20 19 19 19 18 18 17 16 16 15 16 16 15 15 14 13 13 13 12 12 11 11 11 10 10 10 10 9 9 9 9 8 9 9 9 9 9
18 19 19 19 20 20 19 19 19 19 18 18 17 17 16 17 16 16 15 15 14 14 13 13 12 12 12 11 11 11 10 10 10 9 9 9 9 8 8 8 9 9 9
18 19 19 19 19 19 19 19 19 19 18 18 17 17 17 17 16 16 15 15 15 14 14 13 13 12 12 12 11 11 10 10 10 10 9 9 9 9 8 8 8 8 8
18 18 18 19 19 19 19 19 19 19 18 18 17 17 17 17 16 16 16 16 15 15 14 14 13 13 12 12 11 11 11 10 10 10 9 9 9 9 8 8 8 7 8
17 18 18 18 18 19 19 19 19 19 18 18 18 17 17 17 16 16 16 16 16 16 15 14 14 13 12 12 11 11 11 10 10 10 9 9 9 9 8 8 7 7 7
17 17 17 18 18 18 18 18 18 18 18 18 18 17 17 16 16 16 16 15 15 15 15 14 14 13 13 12 11 11 11 10 10 10 9 9 9 8 8 8 7 7 6
15 16 16 17 17 17 18 18 18 18 18 18 17 17 17 16 16 16 15 15 15 15 14 14 14 13 13 12 11 11 11 10 10 10 9 9 9 8 8 8 7 7 6
14 15 15 16 16 16 17 17 17 17 17 17 17 17 16 16 16 15 15 15 15 14 14 14 13 13 13 12 11 11 11 10 10 9 9 9 9 8 8 7 7 6 6
14 14 14 15 15 15 16 16 16 16 17 17 17 17 16 16 15 15 15 15 14 14 14 14 13 13 12 12 11 11 11 10 10 9 9 9 8 8 8 7 7 6 6
13 14 14 14 14 15 15 15 16 16 16 16 16 16 16 16 16 15 15 15 14 14 13 13 13 13 12 12 11 11 11 10 10 9 9 8 8 8 7 7 6 6 5
12 13 13 13 14 14 14 15 15 15 15 15 16 16 16 16 16 15 15 14 14 13 13 13 13 12 12 11 11 11 10 10 9 9 8 8 8 7 7 6 6 6 5
12 12 12 13 13 13 14 14 14 15 15 15 15 15 15 15 15 15 15 14 14 13 13 13 12 12 11 11 11 10 10 9 9 8 8 8 7 7 7 6 6 5 4
11 11 12 12 12 13 13 14 14 14 14 14 14 15 15 15 15 14 14 14 13 13 13 12 12 12 11 11 11 10 9 9 8 8 8 7 7 7 6 6 5 4 4
10 11 11 11 12 12 12 13 13 13 13 14 14 14 14 14 14 14 13 13 13 13 12 12 11 11 11 11 10 9 9 8 8 8 7 7 7 6 6 5 5 4 4
10 10 11 11 11 11 12 12 13 13 13 13 13 13 13 13 13 13 13 12 12 12 12 11 11 11 10 10 9 9 8 8 7 7 7 7 6 6 5 5 4 4 3
10 10 10 10 10 11 11 11 12 12 12 12 12 12 12 12 12 12 12 12 12 11 11 11 10 10 9 9 8 8 7 7 7 6 6 6 6 5 5 4 3 3 3
9 9 9 10 10 10 10 10 11 11 11 11 11 11 11 11 11 12 11 11 11 11 10 10 9 9 9 8 8 8 7 6 6 6 5 5 5 5 4 3 3 2 2
8 9 9 9 9 9 9 9 10 10 10 10 10 10 10 11 11 11 10 10 10 10 9 9 8 8 8 8 7 7 6 6 6 5 5 5 4 4 3 3 2 2 1
8 8 8 8 9 9 9 9 9 9 9 9 9 10 10 10 10 9 9 9 9 9 8 8 7 7 7 6 6 6 6 5 5 5 4 4 4 3 2 2 1 1 0
7 7 7 8 8 8 8 8 8 8 8 8 9 9 9 9 9 8 8 8 8 8 8 7 7 6 6 6 5 5 5 4 4 4 4 3 3 2 2 1 1 0 -0
6 6 6 7 7 7 7 7 7 7 7 7 8 8 8 8 8 8 7 8 7 7 7 6 6 5 5 5 4 4 4 4 3 3 3 2 2 1 1 0 -0 -1 -1
5 5 5 6 6 6 6 6 6 6 6 6 7 7 7 7 7 7 6 7 7 7 7 6 5 5 5 4 4 4 3 3 3 2 2 1 1 1 0 -0 -1 -2 -2
5 5 5 5 5 5 5 5 5 5 5 6 6 6 6 6 5 5 5 5 5 5 5 5 5 4 4 4 3 3 3 2 2 2 1 1 0 -0 -1 -1 -2 -2 -3

GEFSMW_850_meantemp_180.txt.gz
Temperature
18 18 18 18 18 18 18 17 17 17 16 15 15 14 15 15 14 14 14 14 13 13 12 12 11 11 11 11 10 10 10 10 9 9 9 9 9 10 10 10 10 10 10
18 18 18 17 18 18 18 18 17 17 16 16 16 16 16 15 15 15 14 14 14 13 13 12 12 12 11 11 10 10 10 9 9 9 9 9 10 10 10 10 10 10 10
18 17 17 17 17 17 17 17 17 17 17 17 16 15 14 14 14 14 14 14 14 14 13 13 12 12 12 11 11 10 10 10 10 9 9 10 11 10 10 10 10 10 10
17 17 17 17 17 17 17 17 17 17 17 16 15 15 15 15 15 15 15 15 15 14 14 13 13 12 12 12 11 11 11 10 10 10 9 9 10 10 10 10 10 10 10
16 16 17 17 17 17 17 17 17 17 16 16 15 15 15 15 15 15 15 14 14 14 14 14 13 13 12 12 11 11 11 10 10 10 10 9 9 9 9 9 9 9 10
16 16 16 16 16 17 17 17 17 17 16 16 15 15 15 15 14 14 14 14 14 14 14 14 14 13 13 12 12 11 11 11 10 10 10 10 9 9 9 9 9 9 9
16 16 16 16 16 16 17 16 16 17 16 16 16 16 16 15 15 15 14 14 14 14 14 14 14 13 13 13 12 12 11 11 10 10 10 10 10 9 9 9 9 8 8
15 15 15 15 16 16 16 16 16 16 16 16 16 16 16 15 15 15 14 14 14 14 15 15 14 14 13 13 12 12 11 11 11 10 10 10 10 9 9 9 8 8 8
14 15 15 15 15 15 15 15 16 16 16 16 16 15 15 15 15 15 14 14 14 14 14 14 14 13 13 12 12 11 11 11 11 10 10 10 10 9 9 9 8 8 7
13 13 14 14 14 15 15 15 15 15 15 15 15 15 15 15 15 15 14 14 14 14 13 13 13 13 13 12 12 11 11 11 11 10 10 10 9 9 9 9 8 8 7
12 13 13 13 14 14 14 14 15 15 15 15 15 15 15 15 14 14 14 14 14 13 13 13 13 13 13 12 12 11 11 11 10 10 10 10 9 9 9 8 8 7 7
12 12 12 12 13 13 13 13 14 14 14 14 14 14 14 14 14 14 14 14 13 13 13 13 12 12 12 12 12 11 11 11 10 10 10 10 9 9 8 8 8 7 7
11 11 11 11 12 12 12 13 13 13 13 13 13 13 13 14 14 14 14 13 13 13 13 12 12 12 12 12 12 11 11 11 11 10 10 10 9 9 8 8 8 7 7
11 11 11 11 11 11 12 12 12 12 13 13 13 13 13 13 13 13 13 13 13 12 12 12 12 12 12 11 11 11 11 10 10 10 10 9 9 8 8 8 7 7 6
10 10 10 10 10 11 11 11 12 12 12 12 12 12 12 13 13 13 13 12 12 12 12 12 11 11 11 11 11 11 10 10 10 9 9 9 9 8 8 8 7 7 6
10 10 10 10 10 10 11 11 11 11 11 12 12 12 12 12 12 12 12 12 12 12 11 11 11 11 11 11 10 10 10 10 9 9 9 8 8 8 7 7 7 6 6
9 9 9 9 9 10 10 10 10 11 11 11 11 11 11 11 11 11 11 11 11 11 11 11 10 10 10 10 10 10 9 9 9 9 8 8 7 7 7 6 6 6 5
9 8 8 9 9 9 9 9 10 10 10 10 10 11 10 10 11 11 10 10 10 10 10 10 10 10 10 10 9 9 8 8 8 8 7 7 7 6 6 6 5 5 5
8 8 8 8 8 8 8 9 9 9 9 9 10 10 10 10 10 10 10 10 10 10 10 9 9 9 9 9 9 8 8 7 7 7 7 6 6 6 6 5 5 5 4
7 7 7 7 7 7 8 8 8 8 9 9 9 9 9 9 9 9 9 9 9 9 9 8 8 8 8 8 8 8 7 7 6 6 6 6 5 5 5 5 5 4 4
6 6 6 6 6 7 7 7 7 7 8 8 8 8 8 8 8 8 8 8 8 8 8 8 8 8 7 7 7 7 7 6 6 6 5 5 5 5 4 4 4 4 3
5 5 5 6 6 6 6 6 7 7 7 7 7 7 7 7 7 7 7 7 7 7 7 7 7 7 7 7 7 6 6 6 5 5 5 5 4 4 4 3 3 3 2
4 5 5 5 5 5 5 5 6 6 6 6 6 6 6 6 6 6 6 6 6 6 6 6 6 6 6 6 6 6 5 5 5 4 4 4 4 3 3 3 2 2 2
4 4 4 4 4 5 5 4 5 5 5 5 5 5 5 5 6 6 6 5 5 5 5 5 5 5 5 5 5 5 4 4 4 3 3 3 3 2 2 2 1 1 1
3 3 3 3 3 4 4 4 4 4 4 4 4 4 4 4 4 5 5 4 5 5 5 5 5 5 5 5 5 4 4 4 3 3 2 2 1 1 1 1 0 0 -0
2 2 2 3 3 3 3 3 3 3 3 3 3 3 3 3 3 3 3 3 4 4 4 4 4 4 4 4 4 4 3 3 3 2 2 1 1 1 0 0 -0 -1 -1

GEFSMW_850_meantemp_186.txt.gz
Temperature
19 19 19 19 18 18 18 17 17 16 16 15 14 14 14 14 14 14 14 14 13 13 13 12 12 12 11 11 11 11 11 10 10 10 10 10 10 10 10 10 10 10 10
19 19 19 18 18 18 18 17 17 16 16 15 15 15 15 14 14 14 13 13 13 13 13 13 12 12 12 11 11 11 11 10 10 10 9 9 10 10 11 11 11 10 10
19 19 18 18 18 18 18 17 17 17 16 16 15 14 14 13 13 13 13 13 13 13 13 13 13 12 12 12 12 11 11 11 10 10 10 10 10 10 11 11 11 11 10
18 18 18 18 18 17 17 17 17 17 16 15 15 14 14 13 14 14 14 14 14 13 13 13 13 13 12 12 12 12 11 11 10 10 10 10 11 11 10 11 11 11 10
18 18 18 18 17 17 17 17 17 17 16 15 15 14 14 14 14 14 13 13 13 13 13 13 13 12 12 12 12 12 11 11 11 11 10 10 10 10 10 10 10 10 10
17 17 17 17 17 17 17 17 16 16 16 15 15 14 14 14 13 13 13 13 13 13 13 13 13 13 12 12 12 12 11 11 11 11 10 11 10 10 10 10 10 10 10
16 16 16 16 16 16 16 16 16 16 15 15 15 14 14 14 13 13 13 13 13 13 13 13 13 13 12 12 12 11 11 11 11 11 11 11 11 11 11 10 10 10 10
15 15 15 15 15 15 15 15 15 15 15 15 15 14 14 14 13 13 13 13 13 13 13 13 13 13 12 12 12 11 11 11 11 11 11 10 10 10 10 10 10 9 9
14 14 14 14 14 14 15 15 15 14 14 14 14 14 14 13 13 13 13 13 13 13 12 12 12 12 12 12 12 11 11 11 11 11 10 10 10 10 10 10 10 9 9
14 14 13 13 14 14 14 14 14 14 14 14 14 13 13 13 13 13 13 12 12 12 12 12 12 12 12 12 11 11 11 11 10 10 10 10 10 10 9 9 9 9 9
13 13 13 13 13 13 13 13 13 13 13 13 13 13 13 13 13 12 12 12 12 12 12 11 11 11 11 11 11 11 10 10 10 10 10 10 10 9 9 9 9 9 9
13 13 12 13 12 12 12 13 13 13 13 13 13 12 12 12 12 12 12 12 12 12 12 11 11 11 11 11 10 10 10 10 10 10 9 9 9 9 9 9 9 9 8
12 12 12 12 12 12 12 12 12 12 12 12 12 12 12 12 12 12 12 12 12 11 11 11 11 11 10 10 10 10 10 10 9 9 9 9 9 9 9 8 8 8 8
12 11 11 11 11 11 11 11 11 11 11 11 11 11 11 11 11 11 11 11 11 11 11 11 11 10 10 10 10 9 9 9 9 9 9 9 8 8 8 8 8 8 7
11 11 11 10 10 10 10 10 10 10 10 11 10 11 11 11 11 11 11 11 11 11 10 10 10 10 9 9 9 9 9 9 9 9 8 8 8 8 8 8 8 7 7
10 10 10 10 9 9 9 9 9 9 9 10 10 10 10 10 10 10 10 10 10 10 10 10 10 9 9 9 9 9 8 8 8 8 8 8 8 8 8 7 7 7 7
9 9 9 8 8 8 8 8 8 8 9 9 9 9 9 9 9 9 9 9 9 9 9 9 9 9 9 8 8 8 8 8 8 8 8 8 8 7 7 7 7 7 6
9 8 8 8 8 8 8 8 8 8 8 8 8 8 8 8 8 8 9 9 9 9 9 8 8 8 8 8 8 8 7 7 8 7 7 7 7 7 7 7 6 6 6
8 7 7 7 7 7 7 7 7 7 7 7 7 7 7 7 7 8 8 8 8 8 8 8 7 8 8 7 7 7 7 7 7 7 7 7 7 7 6 6 6 6 5
7 6 6 6 6 6 6 6 6 6 6 6 6 6 6 7 7 7 7 7 7 7 7 7 7 7 7 7 7 6 6 6 6 6 6 6 6 6 6 6 5 5 5
6 6 6 5 5 5 5 5 5 5 5 5 5 6 6 6 6 6 6 6 6 6 6 6 6 6 6 6 6 6 6 6 6 6 6 6 6 6 5 5 5 5 4
5 5 5 5 5 5 5 5 4 4 5 5 5 5 5 5 5 5 5 5 5 5 5 5 5 5 5 5 5 5 5 5 5 5 5 5 5 5 5 4 4 4 4
4 4 4 4 4 4 4 4 4 4 4 4 4 4 4 4 4 4 5 5 5 4 4 4 4 4 4 4 4 4 4 4 5 4 4 4 4 4 4 4 3 3 3
4 3 3 3 3 3 3 3 3 3 3 3 3 3 3 4 4 4 4 4 4 4 4 4 4 4 4 4 4 4 4 4 4 4 4 3 3 3 3 3 2 2 2
3 3 2 2 2 2 2 2 2 2 2 2 2 2 2 2 3 3 3 3 3 3 3 3 3 3 3 3 3 3 3 3 3 3 3 2 2 2 2 2 1 1 1
2 2 2 1 1 1 1 1 1 1 1 1 1 1 1 2 2 2 2 2 2 2 2 2 2 2 2 2 2 2 2 2 2 2 2 2 1 1 1 1 1 0 0

GEFSMW_850_meantemp_192.txt.gz
Temperature
16 16 16 17 17 17 17 17 16 16 16 15 15 14 14 14 14 14 14 14 13 13 13 12 12 12 12 12 12 11 11 11 10 10 10 10 10 10 10 10 10 11 11
15 16 16 16 16 16 16 16 16 16 16 16 15 15 15 14 14 14 14 13 13 13 12 12 12 12 12 12 11 11 11 11 10 10 9 9 10 10 11 11 11 11 11
15 15 15 15 16 16 16 16 16 16 16 16 15 15 14 13 13 13 13 13 13 13 13 12 12 12 12 12 11 11 11 11 10 10 10 9 10 10 11 11 11 11 11
14 14 15 15 15 15 15 16 16 16 16 15 15 15 14 14 14 14 14 14 13 13 13 12 12 12 12 12 11 11 11 11 10 10 10 10 11 10 10 11 11 11 11
14 14 14 14 14 14 15 15 15 15 15 15 15 15 14 14 14 14 13 13 13 13 13 12 12 12 12 12 11 11 11 11 10 10 10 10 10 10 10 10 11 11 11
13 14 14 14 14 14 14 14 15 15 15 15 14 14 14 14 14 13 13 13 13 12 12 12 12 12 12 11 11 11 11 11 10 10 10 10 10 10 10 10 10 11 11
13 13 13 13 13 14 14 14 14 14 14 14 14 14 14 14 13 13 13 13 12 12 12 12 12 12 12 11 11 11 11 10 10 10 10 10 10 10 10 10 10 10 10
12 12 13 13 13 13 13 13 13 13 13 14 14 14 14 13 13 13 13 12 12 12 12 12 12 11 11 11 11 11 10 10 10 10 10 9 10 9 9 10 10 9 9
12 12 12 12 12 12 13 13 13 13 13 13 13 13 13 13 13 13 12 12 12 12 12 11 11 11 11 11 10 10 10 10 10 9 9 9 9 9 9 9 9 9 9
12 12 12 12 12 12 12 12 12 12 12 12 12 13 13 13 13 12 12 12 12 12 11 11 11 11 11 10 10 10 10 9 9 9 9 9 9 9 9 9 9 9 8
11 11 11 11 11 11 11 11 11 12 12 12 12 12 12 12 12 12 12 12 11 11 11 11 10 10 10 10 10 10 9 9 9 9 8 8 8 8 8 8 8 8 8
11 11 11 11 11 11 11 11 11 11 11 11 11 11 11 12 12 11 11 11 11 11 11 10 10 10 10 10 9 9 9 9 9 9 8 8 8 8 8 8 8 8 8
10 10 10 10 10 10 10 10 10 10 10 10 10 11 11 11 11 11 11 11 10 10 10 10 9 9 9 9 9 9 9 9 8 8 8 8 8 8 8 8 8 8 8
9 9 9 9 9 9 9 9 9 9 10 10 10 10 10 10 10 10 10 10 10 9 9 9 9 9 9 9 9 9 9 8 8 8 8 8 8 8 8 7 7 7 7
9 9 9 8 8 8 8 9 9 9 9 9 9 9 9 9 9 9 9 9 9 9 9 9 9 9 9 8 8 8 8 8 8 8 8 8 8 8 7 7 7 7 7
8 8 8 8 8 8 8 8 8 8 8 8 8 8 8 8 8 8 8 8 8 8 8 8 8 8 8 8 8 8 8 8 8 8 8 7 7 7 7 7 7 7 7
7 7 7 7 7 7 7 7 7 7 7 7 7 7 7 7 8 8 8 8 8 8 8 8 8 8 8 8 8 8 8 8 8 7 7 7 7 7 7 7 7 6 6
7 7 6 6 6 6 6 6 6 6 6 6 6 6 6 7 7 7 7 7 7 7 7 7 7 7 8 8 8 7 7 7 7 7 7 7 7 7 6 6 6 6 6
6 6 6 5 5 5 5 5 5 5 5 6 5 5 5 6 6 6 6 6 6 6 6 6 7 7 7 7 7 7 7 6 7 7 6 6 6 6 6 6 5 6 6
6 5 5 5 5 5 4 4 4 5 5 5 5 5 5 5 5 5 5 5 5 5 6 6 6 6 6 6 6 6 6 6 6 6 6 5 5 5 5 5 5 5 5
5 5 4 4 4 4 4 4 4 4 4 4 4 4 4 4 4 4 4 4 5 5 5 5 5 5 5 5 5 5 5 5 5 5 5 5 5 5 5 4 4 4 4
4 4 3 3 3 3 3 3 3 3 3 3 3 3 4 3 3 3 4 4 4 4 4 4 4 4 4 4 5 4 4 5 5 5 4 4 4 4 4 4 4 3 3
3 3 3 3 3 2 2 2 2 2 2 2 3 3 3 3 3 3 3 3 3 3 3 3 3 3 3 4 4 4 4 4 4 4 4 4 3 3 3 3 3 3 3
2 2 2 2 2 2 1 1 1 1 2 2 2 2 2 2 2 2 2 2 2 2 2 2 3 3 3 3 3 3 3 3 3 3 3 3 3 3 2 2 2 2 2
1 1 1 1 1 1 1 0 0 1 1 1 1 1 1 1 1 1 1 1 1 1 1 2 2 2 2 2 2 2 2 2 2 2 2 2 2 2 2 2 1 1 1
1 0 0 -0 -0 -0 -0 -0 -1 -0 -0 0 0 -0 0 0 0 0 0 0 0 0 1 1 1 1 1 1 1 1 2 2 2 2 2 1 1 1 1 1 1 1 0

GEFSMW_850_meantemp_198.txt.gz
Temperature
13 14 14 14 14 14 14 14 15 15 14 14 14 14 14 14 14 14 13 13 13 13 12 12 12 12 11 11 11 11 11 11 11 10 10 10 10 10 11 11 11 11 11
13 13 14 14 14 14 14 14 14 14 14 14 14 13 13 13 13 13 13 13 13 13 12 12 12 12 12 11 11 11 11 10 10 10 9 9 10 10 11 11 11 11 11
12 13 13 13 13 14 14 14 14 14 14 13 13 13 12 12 12 13 13 13 13 12 12 12 12 12 11 11 11 11 10 10 10 10 9 9 9 10 10 11 11 11 11
12 12 13 13 13 13 13 13 13 13 13 13 13 12 12 12 12 13 13 13 13 12 12 12 12 11 11 11 11 11 10 10 9 9 9 9 9 9 9 10 10 10 11
12 12 12 13 13 13 13 13 13 13 13 13 12 12 12 12 12 12 12 12 12 12 12 12 11 11 11 11 11 10 10 10 9 9 9 9 9 8 8 9 10 10 10
11 12 12 12 12 12 12 12 13 12 12 12 12 12 12 12 12 12 12 12 12 12 12 12 11 11 11 11 10 10 10 10 9 9 9 9 8 8 8 8 9 9 10
11 11 11 12 12 12 12 12 12 12 12 12 12 12 12 11 11 11 11 12 12 12 12 11 11 11 11 11 10 10 10 10 9 9 9 9 8 8 8 8 8 8 9
10 11 11 11 11 11 11 11 11 11 11 11 11 11 11 11 11 11 11 11 11 11 11 11 11 11 11 10 10 10 10 9 9 9 8 8 8 8 8 8 8 7 8
10 10 10 11 11 11 11 10 11 11 11 11 10 10 11 10 11 10 10 10 11 11 11 11 11 11 10 10 10 9 9 9 9 8 8 8 8 8 8 8 7 7 7
10 10 10 10 10 10 10 10 10 10 10 10 10 10 10 10 10 10 10 10 10 10 10 10 10 10 10 10 9 9 9 9 8 8 8 8 8 8 7 7 7 7 7
9 9 9 9 9 10 9 9 9 9 9 9 9 9 9 9 10 10 10 10 10 10 10 10 10 10 10 9 9 9 8 8 8 8 8 8 8 7 7 7 7 7 7
9 9 9 9 9 9 9 9 9 9 8 9 9 9 9 9 9 9 9 9 9 9 9 9 9 9 9 9 8 8 8 8 8 8 8 8 7 7 7 7 7 7 7
8 8 8 8 8 8 8 8 8 8 8 8 8 8 8 8 8 8 8 8 8 8 9 9 9 9 9 8 8 8 8 8 8 7 7 7 7 7 7 7 7 7 6
8 8 8 8 7 7 7 7 7 7 7 7 7 7 7 7 7 7 8 8 8 8 8 8 8 8 8 8 7 7 7 7 7 7 7 7 7 7 7 7 7 6 6
7 7 7 7 7 7 7 7 7 7 7 6 6 6 6 6 7 7 7 7 7 7 7 7 7 7 7 7 7 7 7 7 7 7 7 7 7 7 7 7 6 6 6
7 7 6 6 6 6 6 6 6 6 6 6 6 6 6 6 6 6 6 6 6 6 6 6 7 7 7 7 7 7 7 7 7 7 7 7 7 7 7 7 6 6 6
6 6 6 6 6 5 5 5 5 5 5 5 5 5 5 5 5 5 5 5 5 6 6 6 6 6 6 6 6 6 6 6 6 6 6 6 7 7 6 6 6 6 6
5 5 5 5 5 5 5 5 5 5 4 4 4 4 4 4 5 5 5 5 5 5 5 5 5 5 6 6 6 6 6 6 6 6 6 6 6 6 6 6 6 6 6
5 5 5 4 4 4 4 4 4 4 4 4 3 3 3 3 4 4 4 4 4 4 4 4 4 4 5 5 5 5 5 5 5 5 5 6 6 6 6 5 5 5 5
5 4 4 4 4 3 3 3 3 3 3 3 3 3 3 3 3 3 3 3 3 3 3 3 4 4 4 4 4 4 4 5 5 5 5 5 5 5 5 5 5 5 5
4 4 3 3 3 3 2 2 2 2 2 2 2 2 2 2 2 2 2 2 2 2 3 3 3 3 3 4 4 4 4 4 4 4 4 4 4 4 4 4 4 4 4
3 3 3 2 2 2 2 1 2 2 1 1 1 1 2 2 2 2 2 2 2 2 2 2 2 2 3 3 3 3 3 3 3 3 3 3 3 4 4 3 3 3 3
2 2 2 1 1 1 1 1 1 1 1 1 1 1 1 1 1 1 1 1 1 1 1 1 1 2 2 2 2 2 2 2 2 2 3 3 3 3 3 3 3 3 2
2 1 1 1 1 0 0 0 0 0 -0 -0 0 0 0 0 0 0 0 0 0 0 0 0 0 1 1 1 1 1 2 2 2 2 2 2 2 2 2 2 2 2 2
1 1 0 -0 -0 -0 -0 -1 -1 -1 -1 -1 -1 -1 -1 -1 -1 -1 -1 -1 -1 -0 -0 -0 -0 0 0 0 1 1 1 1 1 1 1 1 1 1 1 1 1 1 1
-0 -0 -1 -1 -1 -1 -1 -1 -1 -2 -2 -2 -2 -2 -2 -2 -2 -2 -1 -1 -1 -1 -1 -1 -1 -1 -0 -0 0 0 1 1 1 1 1 1 1 1 1 0 1 1 0

GEFSMW_850_meantemp_204.txt.gz
Temperature
13 13 13 13 13 13 13 13 13 13 13 13 13 13 13 13 12 12 12 12 12 12 12 11 11 11 11 11 11 10 10 10 10 9 9 10 10 10 11 11 11 11 11
12 12 12 12 12 12 13 13 13 13 13 13 13 12 12 12 12 12 12 12 12 12 11 11 11 11 11 11 10 10 10 10 9 9 9 9 10 10 10 10 11 11 10
12 12 12 12 12 12 12 12 12 12 12 12 12 12 12 12 11 11 11 11 11 11 11 11 11 11 11 11 10 10 10 9 9 9 9 9 10 10 10 10 10 10 10
12 11 11 11 12 12 12 12 12 12 12 12 12 12 11 11 11 11 11 11 11 11 11 11 11 11 10 10 10 10 10 9 9 9 9 9 9 9 9 9 10 10 10
11 11 11 11 11 12 12 12 12 12 11 11 11 11 11 11 11 10 10 10 11 11 10 10 10 10 10 10 10 10 9 9 9 9 9 8 8 8 8 9 9 9 9
10 10 10 11 11 11 11 11 11 11 11 11 11 11 11 10 10 10 10 10 10 10 10 10 10 10 10 10 10 9 9 9 9 8 8 8 8 8 8 8 8 8 9
10 10 10 10 10 11 11 11 11 11 10 10 10 10 10 10 9 9 9 9 9 9 10 10 9 9 9 9 9 9 9 9 9 8 8 8 8 8 8 8 8 8 8
10 9 9 9 10 10 10 10 10 10 10 10 10 10 9 9 9 9 8 8 9 9 9 9 9 9 9 9 9 9 9 9 9 8 8 8 8 8 8 8 7 7 8
9 9 9 9 9 9 9 9 9 9 9 9 9 9 9 8 8 8 8 8 8 8 8 8 8 9 9 9 8 8 8 8 8 8 8 8 8 8 7 7 7 7 7
9 9 9 8 9 9 9 9 9 9 9 9 8 8 8 8 8 7 7 7 8 8 8 8 8 8 8 8 8 8 8 8 8 8 7 7 7 7 7 7 7 7 7
9 9 8 8 8 8 8 8 8 8 8 8 8 7 7 7 7 7 7 7 7 7 7 7 7 7 8 8 7 7 7 7 7 7 7 7 7 7 7 7 7 6 6
8 8 8 8 8 8 8 8 8 7 8 7 7 7 7 7 7 6 7 7 6 6 6 6 6 7 7 7 7 7 7 7 7 7 7 7 7 6 6 6 6 6 6
8 8 8 7 7 7 7 7 7 7 7 7 7 7 6 6 6 6 6 6 6 6 6 6 6 6 6 6 6 6 7 7 7 7 7 6 6 6 6 6 6 6 6
8 7 7 7 7 7 6 6 6 6 6 6 6 6 6 5 5 5 5 5 5 5 5 5 5 6 6 6 6 6 6 6 6 6 6 6 6 6 6 6 6 6 6
7 7 6 6 6 6 6 6 6 6 6 6 6 5 5 5 5 5 5 5 5 5 5 5 5 5 5 5 5 5 5 5 6 6 6 6 6 6 5 5 6 5 5
7 6 6 6 6 5 5 5 5 5 5 5 5 5 4 4 4 4 4 4 4 4 4 4 4 4 4 5 5 5 5 5 5 5 5 5 5 5 5 6 5 5 5
6 6 5 5 5 5 4 4 4 4 4 4 4 4 4 4 4 4 4 4 3 4 4 4 4 4 4 4 4 4 4 4 4 5 5 5 5 5 5 5 5 5 5
5 5 5 4 4 4 4 4 4 3 3 3 3 3 3 3 3 3 3 3 3 3 3 3 3 3 3 4 4 4 4 4 4 4 4 4 4 5 5 4 4 4 4
4 4 4 4 3 3 3 3 3 3 3 3 3 3 2 2 2 2 2 2 2 2 2 2 2 2 3 3 3 3 3 3 3 3 3 4 4 4 4 4 4 4 4
4 3 3 3 3 3 3 2 2 2 2 2 2 2 2 2 2 2 2 2 2 2 2 1 2 2 2 2 2 2 2 2 2 3 3 3 3 3 3 3 3 3 4
3 3 3 3 2 2 2 2 2 1 1 1 1 1 1 1 1 1 1 1 1 1 1 1 1 1 1 1 2 2 1 1 2 2 2 2 3 3 3 3 3 3 3
2 2 2 2 2 1 1 1 1 1 1 0 0 1 1 0 0 0 0 0 -0 -0 -0 0 0 0 1 1 1 1 1 1 1 1 2 2 2 2 2 2 2 2 2
2 1 1 1 1 1 0 0 0 -0 -0 -0 -0 -0 -0 -0 -1 -1 -1 -1 -1 -1 -1 -1 -1 -1 -0 -0 0 0 1 1 1 1 1 1 1 1 1 1 2 2 2
1 1 1 0 0 0 -0 -0 -1 -1 -1 -1 -1 -1 -1 -1 -1 -1 -2 -2 -2 -2 -2 -2 -1 -1 -1 -1 -1 -0 -0 0 0 0 0 1 1 1 1 1 1 1 1
0 0 -0 -0 -0 -1 -1 -1 -1 -1 -2 -2 -2 -2 -2 -2 -2 -2 -2 -3 -2 -2 -2 -2 -2 -2 -2 -2 -1 -1 -0 -0 -0 -0 -0 -0 0 0 0 0 0 0 0
-0 -1 -1 -1 -1 -1 -1 -2 -2 -2 -2 -2 -2 -3 -3 -3 -3 -3 -3 -3 -3 -3 -3 -3 -3 -2 -2 -2 -2 -1 -1 -1 -1 -1 -1 -1 -1 -1 -1 -1 -0 -0 -0

GEFSMW_850_meantemp_210.txt.gz
Temperature
15 15 14 14 14 14 14 13 13 13 13 13 13 12 12 12 12 12 12 12 12 12 12 12 11 11 11 11 11 11 10 10 10 10 10 10 10 11 11 11 11 11 11
15 14 14 14 13 13 13 13 13 13 13 12 12 12 12 12 12 12 12 12 12 11 11 11 11 11 11 11 10 10 10 10 10 9 9 9 10 10 11 11 11 11 11
15 14 14 13 13 13 13 13 12 12 12 12 12 12 11 11 11 11 11 11 11 11 11 11 11 10 10 10 10 10 10 9 9 9 9 9 9 10 10 10 10 10 10
14 14 13 13 12 12 12 12 12 12 12 12 11 11 11 11 11 11 11 11 11 10 10 10 10 10 10 10 9 9 9 9 9 9 9 9 9 9 9 9 10 10 10
14 13 13 12 12 12 12 11 11 11 11 11 11 11 11 11 11 10 10 10 10 10 10 9 9 9 9 9 9 9 9 9 9 9 9 8 9 9 9 8 9 9 9
13 13 12 12 12 11 11 11 11 11 11 11 11 11 10 10 10 10 10 10 10 9 9 9 9 9 9 8 8 8 8 8 8 8 8 8 8 8 8 8 8 9 9
13 12 12 11 11 11 11 11 10 10 10 10 10 10 10 10 10 9 9 9 9 9 9 8 8 8 8 8 8 8 8 8 8 8 8 8 8 8 8 8 8 8 8
12 12 11 11 11 10 10 10 10 10 10 10 10 10 9 9 9 9 9 8 8 8 8 8 8 8 7 7 7 7 7 7 7 7 7 7 7 7 7 7 7 7 7
12 11 11 11 10 10 10 10 9 9 9 9 9 9 9 9 9 9 8 8 8 7 7 7 7 7 7 7 7 7 7 7 7 7 7 7 7 7 7 7 7 7 7
12 11 11 10 10 10 9 9 9 9 9 9 9 9 9 8 8 8 8 8 7 7 7 7 7 6 6 6 6 6 6 6 6 6 6 7 7 7 7 7 7 7 6
11 11 10 10 9 9 9 8 8 8 8 8 8 8 8 8 7 7 7 7 7 6 6 6 6 6 6 6 6 6 6 6 6 6 6 6 6 6 6 6 6 6 6
11 10 10 10 9 9 8 8 8 8 8 7 7 7 7 7 7 7 6 6 6 6 6 6 6 6 5 5 5 5 5 5 5 6 6 6 6 6 6 6 6 6 6
11 10 9 9 8 8 8 7 7 7 7 7 7 7 6 6 6 6 6 6 5 5 5 5 5 5 5 5 5 5 5 5 5 5 5 5 5 5 5 5 5 5 5
10 9 9 8 8 8 7 7 7 7 6 6 6 6 6 6 5 5 5 5 5 5 5 5 4 4 4 4 4 4 4 4 4 4 5 5 5 5 5 5 5 5 5
9 9 8 8 7 7 7 6 6 6 6 6 6 5 5 5 5 5 5 5 4 4 4 4 4 4 4 4 4 4 4 4 4 4 4 4 4 5 4 4 4 4 4
9 8 8 7 7 6 6 6 6 5 5 5 5 5 5 4 4 4 4 4 4 4 4 3 3 3 3 3 3 3 3 3 3 3 4 4 4 4 4 4 4 4 4
8 8 7 7 6 6 5 5 5 5 5 4 4 4 4 4 4 4 4 3 3 3 3 3 3 3 2 3 3 3 3 3 3 3 3 3 3 3 3 3 4 4 4
8 7 6 6 5 5 5 5 4 4 4 4 3 3 3 3 3 3 3 3 3 3 2 2 2 2 2 2 2 2 2 2 2 2 2 2 2 2 2 2 3 3 3
7 6 6 5 5 4 4 4 4 4 3 3 3 3 2 2 2 2 2 2 2 2 2 2 2 1 1 1 1 1 1 1 2 2 1 1 2 2 2 2 2 2 3
6 5 5 4 4 4 4 3 3 3 2 2 2 2 2 1 1 1 1 2 1 1 1 1 1 1 1 1 1 1 1 1 1 1 1 1 1 1 1 2 2 2 2
5 4 4 4 3 3 3 3 2 2 2 1 1 1 1 1 1 1 1 1 1 0 0 0 0 -0 -0 0 0 0 0 0 0 0 1 1 1 1 1 1 1 1 1
4 4 3 3 3 2 2 2 2 1 1 1 1 1 0 0 -0 -0 -0 -0 -1 -1 -1 -1 -0 -1 -1 -1 -1 -0 -0 -0 -0 -0 -0 -0 -0 0 1 1 1 1 1
3 3 3 2 2 2 1 1 1 1 0 0 -0 -0 -0 -1 -1 -1 -1 -1 -1 -1 -2 -2 -2 -1 -1 -1 -1 -1 -1 -1 -1 -1 -1 -1 -1 -0 -0 0 0 0 0
3 2 2 2 1 1 1 0 0 0 -0 -0 -1 -1 -1 -1 -2 -2 -2 -2 -2 -2 -2 -3 -2 -2 -2 -2 -2 -2 -2 -2 -2 -1 -1 -1 -1 -1 -1 -0 -0 -0 -0
2 2 1 1 0 0 -0 -0 -1 -1 -1 -1 -2 -2 -2 -2 -2 -2 -3 -3 -3 -3 -3 -3 -3 -3 -3 -3 -3 -2 -2 -2 -2 -2 -2 -2 -2 -1 -1 -1 -1 -1 -1
1 1 0 -0 -0 -1 -1 -1 -1 -1 -2 -2 -2 -2 -3 -3 -3 -3 -3 -3 -4 -4 -3 -3 -4 -3 -3 -3 -3 -3 -3 -3 -3 -2 -2 -2 -2 -2 -2 -2 -2 -2 -1